• Processing (Info)

  • MPEC 2018-R173: 2014 OF394

    The following Minor Planet Electronic Circular may be linked-to from your own Web pages, but must not otherwise be redistributed electronically.

    A form allowing access to any MPEC is at the bottom of this page.


    Read MPEC 2018-R172 Read MPEC 2018-R174


    M.P.E.C. 2018-R173                               Issued 2018 Sept. 14, 21:49 UT
    
         The Minor Planet Electronic Circulars contain information on unusual
             minor planets and routine data on comets.  They are published
        on behalf of Division F of the International Astronomical Union by the
              Minor Planet Center, Smithsonian Astrophysical Observatory,
                              Cambridge, MA 02138, U.S.A.
    
                 Prepared using the Tamkin Foundation Computer Network
    
                                  MPC@CFA.HARVARD.EDU
                URL https://www.minorplanetcenter.net/    ISSN 1523-6714
    
                                      2014 OF394
    
    Additional Observations:
         K14Od4F  C2012 08 14.48639 23 13 08.493-09 21 56.44         21.8 GVER173F51
         K14Od4F  C2012 08 14.50143 23 13 08.440-09 21 56.62         21.8 GVER173F51
         K14Od4F  C2012 08 14.51647 23 13 08.370-09 21 57.03         22.0 GVER173F51
         K14Od4F  C2012 08 14.53152 23 13 08.313-09 21 57.59         22.3 GVER173F51
         K14Od4F  C2013 10 21.34275 23 12 29.284-08 40 21.32         22.2 GVER173F51
         K14Od4F  C2013 10 21.35436 23 12 29.250-08 40 21.64         22.0 GVER173F51
         K14Od4F  C2015 05 30.58765 23 27 59.446-05 57 52.48         22.0 GVER173F51
         K14Od4F KC2015 07 02.60474 23 28 13.890-05 55 00.74         22.2 GVER173F51
         K14Od4F  C2015 07 23.51985 23 27 34.028-05 58 14.92         21.9 GVER173F51
         K14Od4F  C2015 07 23.53197 23 27 33.996-05 58 15.13         22.1 GVER173F51
         K14Od4F  C2015 07 23.54412 23 27 33.958-05 58 15.13         22.0 GVER173F51
         K14Od4F KC2015 07 30.47778 23 27 13.305-06 00 03.33         22.4 GVER173F51
         K14Od4F  C2015 09 09.41624 23 24 20.584-06 15 08.72         21.9 GVER173F51
         K14Od4F  C2015 09 09.42838 23 24 20.523-06 15 09.00         22.0 GVER173F51
         K14Od4F  C2015 09 09.44056 23 24 20.463-06 15 09.34         22.0 GVER173F51
         K14Od4F  C2015 09 09.45276 23 24 20.403-06 15 09.61         21.9 GVER173F51
         K14Od4F  C2015 09 10.39220 23 24 15.884-06 15 32.74         22.1 GVER173F51
         K14Od4F  C2015 09 12.39061 23 24 06.239-06 16 21.68         21.8 GVER173F51
         K14Od4F  C2015 09 12.39388 23 24 06.229-06 16 21.83         21.7 GVER173F51
         K14Od4F  C2015 09 12.40238 23 24 06.183-06 16 22.02         21.6 GVER173F51
         K14Od4F  C2015 09 12.40563 23 24 06.168-06 16 22.10         21.9 GVER173F51
         K14Od4F  C2015 09 12.41412 23 24 06.124-06 16 22.30         21.7 GVER173F51
         K14Od4F  C2015 09 12.41738 23 24 06.114-06 16 22.40         21.9 GVER173F51
         K14Od4F  C2015 09 12.42588 23 24 06.072-06 16 22.60         21.9 GVER173F51
         K14Od4F  C2015 09 12.42914 23 24 06.056-06 16 22.64         21.8 GVER173F51
         K14Od4F KC2015 10 28.27791 23 20 49.976-06 31 18.22         22.0 GVER173F51
         K14Od4F KC2015 10 29.30058 23 20 46.750-06 31 29.65         22.3 GVER173F51
         K14Od4F KC2015 11 28.23163 23 19 50.380-06 32 49.41         21.9 GVER173F51
         K14Od4F  C2015 12 09.20825 23 19 50.058-06 31 06.78         22.2 GVER173F51
         K14Od4F  C2015 12 09.22051 23 19 50.049-06 31 06.60         22.5 GVER173F51
         K14Od4F  C2015 12 09.23277 23 19 50.060-06 31 06.58         22.4 GVER173F51
         K14Od4F  C2015 12 09.24508 23 19 50.059-06 31 06.27         22.1 GVER173F51
         K14Od4F KC2017 07 22.58627 23 36 09.482-03 47 13.44         22.4 GVER173F51
         K14Od4F  C2017 07 30.49246 23 35 47.318-03 48 57.98         22.3 GVER173F51
         K14Od4F  C2017 07 30.50445 23 35 47.272-03 48 58.14         22.3 GVER173F51
         K14Od4F  C2017 07 30.51645 23 35 47.229-03 48 58.27         22.3 GVER173F51
         K14Od4F  C2017 07 30.52836 23 35 47.203-03 48 58.58         22.1 GVER173F51
         K14Od4F  C2017 08 01.52921 23 35 40.892-03 49 29.22         21.9 GVER173F51
         K14Od4F  C2017 08 01.54110 23 35 40.850-03 49 29.47         22.2 GVER173F51
         K14Od4F  C2017 08 01.55298 23 35 40.810-03 49 29.71         22.1 GVER173F51
         K14Od4F  C2017 08 01.56489 23 35 40.776-03 49 29.80         22.1 GVER173F51
         K14Od4F  C2017 08 03.53158 23 35 34.319-03 50 01.53         21.9 GVER173F51
         K14Od4F  C2017 08 03.54235 23 35 34.271-03 50 01.74         21.6 GVER173F51
         K14Od4F  C2017 08 03.55313 23 35 34.247-03 50 01.87         21.5 GVER173F51
         K14Od4F  C2017 08 03.56388 23 35 34.204-03 50 02.10         21.8 GVER173F51
         K14Od4F  C2017 09 14.41197 23 32 34.381-04 05 23.27         21.7 GVER173F51
         K14Od4F  C2017 09 14.42395 23 32 34.327-04 05 23.66         21.6 GVER173F51
         K14Od4F  C2017 09 14.43589 23 32 34.267-04 05 24.02         21.7 GVER173F51
         K14Od4F  C2017 09 14.44782 23 32 34.210-04 05 24.30         21.9 GVER173F51
         K14Od4F  C2017 09 17.38215 23 32 20.109-04 06 36.27         21.9 GVER173F51
         K14Od4F  C2017 09 17.39386 23 32 20.045-04 06 36.61         22.1 GVER173F51
         K14Od4F  C2017 09 17.40559 23 32 19.995-04 06 36.94         21.8 GVER173F51
         K14Od4F  C2017 09 17.41730 23 32 19.931-04 06 37.12         21.8 GVER173F51
         K14Od4F  C2017 09 22.38761 23 31 56.120-04 08 38.06         22.5 GVER173F51
         K14Od4F  C2017 09 22.39866 23 31 56.065-04 08 38.37         22.2 GVER173F51
         K14Od4F  C2017 09 22.40969 23 31 56.004-04 08 38.76         21.8 GVER173F51
         K14Od4F  C2017 09 25.38663 23 31 41.876-04 09 49.96         22.0 GVER173F51
         K14Od4F  C2017 09 25.39725 23 31 41.828-04 09 50.26         21.9 GVER173F51
         K14Od4F  C2017 09 25.40784 23 31 41.779-04 09 50.54         21.9 GVER173F51
         K14Od4F  C2017 09 25.41845 23 31 41.729-04 09 50.71         22.0 GVER173F51
         K14Od4F  C2017 09 28.42571 23 31 27.615-04 11 01.35         21.9 GVER173F51
         K14Od4F  C2017 09 28.43748 23 31 27.546-04 11 01.49         21.8 GVER173F51
         K14Od4F  C2017 09 28.44924 23 31 27.499-04 11 01.91         21.9 GVER173F51
         K14Od4F  C2017 09 28.46099 23 31 27.436-04 11 02.22         21.9 GVER173F51
         K14Od4F  C2017 11 13.27855 23 28 42.439-04 23 10.43         22.2 GVER173F51
         K14Od4F  C2017 11 13.29049 23 28 42.419-04 23 10.31         22.2 GVER173F51
         K14Od4F  C2017 11 13.30255 23 28 42.389-04 23 10.53         22.3 GVER173F51
         K14Od4F  C2017 11 13.31453 23 28 42.362-04 23 10.59         22.6 GVER173F51
         K14Od4F KC2018 01 04.22928 23 28 59.486-04 14 47.63         22.6 GVER173F51
    
    Observer details:
    F51 Pan-STARRS 1, Haleakala.  Observers J. Bulger, K. Chambers, B. Gibson,
        T. Goggia, T. Lowe, E. Magnier, N. Primak, A. Schultz, J. Thiel,
        S. Watters, M. Willman.  Measurers S. Chastel, M. Huber, R. Jedicke,
        R. Wainscoat, R. Weryk.  1.8-m Ritchey-Chretien + CCD.
    
    First and last observations above in comparison with prediction:
    Residuals in seconds of arc, reference and Delta-T
    120814 F51  2.1+  4.5+    180104 F51 16.1+ 17.5+    MPO384321  +1758 day
    
    Orbital elements:
    2014 OF394
    Epoch 2018 Mar. 23.0 TT = JDT 2458200.5                 MPC
    M   3.16073              (2000.0)            P               Q
    n   0.00308538     Peri.  353.90996     +0.98046981     +0.19329363
    a  46.7300812      Node   354.52816     -0.16054109     +0.68004855
    e   0.1386443      Incl.   22.36520     -0.11360244     +0.70722806
    P 319              H    6.1           G   0.15           U   2
    Residuals in seconds of arc
    120814 F51  0.1-  0.1-    141218 F51  0.1-  0.1-    170801 F51  0.0   0.0
    120814 F51  0.1+  0.1+    141218 F51  0.3+  0.2-    170801 F51  0.1-  0.0
    120814 F51  0.0   0.1+    141218 F51  0.1-  0.1-    170801 F51  0.1-  0.1-
    120814 F51  0.2+  0.1-    150530 F51  0.3-  0.2+    170801 F51  0.0   0.0
    131021 F51  0.0   0.0     150702 F51  0.3-  0.1+    170803 F51  0.0   0.1+
    131021 F51  0.1+  0.2-    150723 F51  0.0   0.0     170803 F51  0.1-  0.0
    140728 F51  0.0   0.2+    150723 F51  0.0   0.1-    170803 F51  0.1+  0.1+
    140728 F51  0.1+  0.2+    150723 F51  0.1-  0.1+    170803 F51  0.0   0.0
    140728 F51  0.1+  0.2+    150730 F51  0.1+  0.1-    170914 F51  0.1-  0.0
    140728 F51  0.0   0.0     150909 F51  0.1+  0.0     170914 F51  0.0   0.1-
    140803 F51  0.1+  0.1+    150909 F51  0.0   0.0     170914 F51  0.0   0.1-
    140803 F51  0.1+  0.2+    150909 F51  0.0   0.0     170914 F51  0.0   0.1-
    140803 F51  0.1+  0.0     150909 F51  0.0   0.0     170917 F51  0.1+  0.0
    140803 F51  0.1+  0.1+    150910 F51  0.0   0.0     170917 F51  0.0   0.0
    140805 F51  0.0   0.0     150912 F51  0.0   0.0     170917 F51  0.1+  0.0
    140805 F51  0.3+  0.1-    150912 F51  0.1+  0.1-    170917 F51  0.0   0.1+
    140805 F51  0.0   0.1-    150912 F51  0.0   0.0     170922 F51  0.0   0.1+
    140805 F51  0.2+  0.1-    150912 F51  0.0   0.0     170922 F51  0.0   0.1+
    140820 F51  0.1-  0.1+    150912 F51  0.0   0.0     170922 F51  0.1-  0.1-
    140820 F51  0.2-  0.1-    150912 F51  0.1+  0.0     170925 F51  0.0   0.0
    140820 F51  0.2-  0.0     150912 F51  0.1+  0.0     170925 F51  0.0   0.1-
    140820 F51  0.0   0.0     150912 F51  0.1+  0.0     170925 F51  0.0   0.1-
    140823 F51  0.2-  0.1-    151028 F51  0.2+  0.1+    170925 F51  0.1+  0.0
    140823 F51  0.1+  0.0     151029 F51  0.1-  0.0     170928 F51  0.1+  0.0
    140823 F51  0.2-  0.0     151128 F51  0.0   0.0     170928 F51  0.1-  0.2+
    140823 F51  0.0   0.1+    151209 F51  0.2+  0.0     170928 F51  0.0   0.0
    140917 F51  0.1-  0.0     151209 F51  0.0   0.0     170928 F51  0.1-  0.0
    140917 F51  0.1-  0.0     151209 F51  0.0   0.1-    171113 F51  0.0   0.0
    140917 F51  0.1-  0.1+    151209 F51  0.0   0.0     171113 F51  0.0   0.1+
    140917 F51  0.1-  0.1+    170722 F51  0.1+  0.1-    171113 F51  0.0   0.0
    141118 F51  0.1-  0.1-    170730 F51  0.0   0.0     171113 F51  0.0   0.0
    141118 F51  0.1-  0.0     170730 F51  0.1-  0.0     180104 F51  0.5+  0.0
    141118 F51  0.0   0.1-    170730 F51  0.2-  0.1+
    141218 F51  0.1-  0.1-    170730 F51  0.0   0.1-
    
    Ephemeris:
    2014 OF394               a,e,i = 46.73, 0.14, 22                 q = 40.251
    Date    TT    R. A. (2000) Decl.     Delta      r     Elong.  Phase     V
    2018 08 15    23 39 11.0 -02 47 33  39.4082 40.2686   147.8     0.8    22.2
    ...
    2018 08 30    23 38 07.2 -02 52 56  39.3049 40.2690   162.5     0.4    22.2
    ...
    2018 09 07    23 37 30.1 -02 56 06  39.2752 40.2693   170.4     0.2    22.2
    ...
    2018 09 13    23 37 01.6 -02 58 33  39.2651 40.2695   176.3     0.1    22.1
    2018 09 14    23 36 56.8 -02 58 58  39.2645 40.2695   177.3     0.1    22.1
    2018 09 15    23 36 52.0 -02 59 23  39.2642 40.2695   178.3     0.0    22.1
    ...
    2018 09 21    23 36 23.2 -03 01 51  39.2684 40.2697   175.6     0.1    22.1
    ...
    2018 09 29    23 35 45.3 -03 05 04  39.2907 40.2700   167.7     0.3    22.2
    ...
    2018 10 14    23 34 38.4 -03 10 37  39.3823 40.2705   152.6     0.7    22.2
    
    A. U. Tomatic                (C) Copyright 2018 MPC           M.P.E.C. 2018-R173
    

    Read MPEC 2018-R172 Read MPEC 2018-R174


    MPEC number:

    Enter an MPEC number in one of the following forms:

    • 1997-B01 (the full form)
    • J97B01 (the packed version of the full form)
    • B01 (the abbreviated form)